| time (UTC) | temp F | wind direction | speed MPH | gust MPH | rain 1hr in | rain 24hr in | rain mn in | humidity % | barometer mb |
| 20260507042129 | 50 | 240 | 12.0 | 0.0 | 0.00 | 0.00 | 0.00 | 93 | |
| 20260507031925 | 50 | 250 | 12.0 | 0.0 | 0.00 | 0.00 | 0.00 | 93 | |
| 20260507021923 | 52 | 240 | 12.0 | 0.0 | 0.00 | 0.00 | 0.00 | 87 | |
| 20260507012025 | 52 | 220 | 9.0 | 0.0 | 0.00 | 0.00 | 0.00 | 93 | |
| 20260507001926 | 52 | 210 | 5.0 | 0.0 | 0.00 | 0.00 | 0.00 | 87 | |
| 20260506231926 | 52 | 210 | 5.0 | 0.0 | 0.00 | 0.00 | 0.00 | 93 | |
| 20260506222126 | 52 | 20 | 7.0 | 0.0 | 0.00 | 0.00 | 0.00 | 93 | |
| 20260506211925 | 54 | 330 | 9.0 | 0.0 | 0.00 | 0.00 | 0.00 | 87 | |
| 20260506201958 | 55 | 20 | 5.0 | 0.0 | 0.00 | 0.00 | 0.00 | 76 | |
| 20260506192117 | 55 | 30 | 7.0 | 0.0 | 0.00 | 0.00 | 0.00 | 82 | |
| 20260506182026 | 57 | 20 | 12.0 | 0.0 | 0.00 | 0.00 | 0.00 | 71 | |
| 20260506171925 | 63 | 360 | 12.0 | 0.0 | 0.00 | 0.00 | 0.00 | 63 | |
| 20260506162141 | 66 | 0 | 2.0 | 0.0 | 0.00 | 0.00 | 0.00 | 55 | |
| 20260506151957 | 66 | 120 | 7.0 | 0.0 | 0.00 | 0.00 | 0.00 | 48 | |
| 20260506141942 | 68 | 130 | 7.0 | 0.0 | 0.00 | 0.00 | 0.00 | 42 | |
| 20260506131942 | 68 | 40 | 7.0 | 0.0 | 0.00 | 0.00 | 0.00 | 42 | |
| 20260506121941 | 68 | 0 | 5.0 | 0.0 | 0.00 | 0.00 | 0.00 | 45 | |
| 20260506111926 | 68 | 0 | 5.0 | 0.0 | 0.00 | 0.00 | 0.00 | 45 | |
| 20260506102128 | 64 | 0 | 2.0 | 0.0 | 0.00 | 0.00 | 0.00 | 55 | |
| 20260506091926 | 63 | 230 | 7.0 | 0.0 | 0.00 | 0.00 | 0.00 | 59 | |
| 20260506081925 | 61 | 280 | 9.0 | 0.0 | 0.00 | 0.00 | 0.00 | 63 | |
| 20260506071926 | 61 | 0 | 5.0 | 0.0 | 0.00 | 0.00 | 0.00 | 72 | |
| 20260506061928 | 57 | 260 | 9.0 | 0.0 | 0.00 | 0.00 | 0.00 | 76 |